www.pogodaiklimat.ru

Погода и климат >> Архив погоды >> Ирак >> Karbalaa


ПОГОДА в Karbalaa

  • Прогноз погоды в Karbalaa
  • Монитор погоды в Karbalaa
  • Климат города

АРХИВ ПОГОДЫ в Karbalaa

Время (UTC), дата Ветер
(напр.,м/с)
 
Видим.   Явления Облачность Т
(С)
Тd
(С)
f
(%)
Тe
(С)
Тes
(С)
Комфортность P
(гПа)
Po
(гПа)
Тmin
(С)
Tmax
(С)
R
(мм)
R24
(мм)
S
(см)
15 14.11 В 3 10 км 8/8 840 м
[Sc]
+19.4 +13.2 67 +21 +21 комфорт 1011.5 1012.0
18 14.11 штиль 0 10 км 8/8 840 м
[Sc]
+18.4 +13.8 75 +19 +19 1012.3 1012.0 +22.2 0.0
21 14.11 ЮВ 3 10 км 9/9 840 м
[Sc]
+16.7 +13.7 82 +16 +16 1012.3 1012.0
03 15.11 штиль 0 10 км 9/9 840 м
[Sc]
+15.6 +13.6 88 +15 +15 1012.5 1013.0
09 15.11 штиль 0 6000 м дымка 10/10 900 м
[Cu Sc]
+18.0 +15.2 84 +18 +18 1013.6 1014.0
12 15.11 Ю 3 6000 м мгла 10/10 900 м
[Cu Sc]
+18.4 +15.3 82 +19 +19 1012.5 1013.0
15 15.11 Ю 2 6000 м дымка 8/8 1000 м
[Sc]
+17.8 +15.7 88 +18 +18 1012.8 1013.0
18 15.11 ЮВ 2 6000 м дымка 8/8 1000 м
[Sc]
+17.6 +15.7 89 +18 +18 1012.8 1013.0 +19.0
06 16.11 С 4 3000 м дымка 10/10 840 м
[Sc]
+15.3 +13.7 90 +14 +14 1017.6 1018.0 +14.4
09 16.11 С 3 6000 м дымка 10/10 840 м
[Sc]
+18.5 +15.1 81 +19 +19 1018.3 1018.0
12 16.11 С 2 10 км 6/3
[Cu hum Ci sp]
+21.3 +14.8 66 +24 +26 комфорт 1018.4 1018.0
15 16.11 штиль 0 10 км ясно +19.5 +14.3 72 +21 +21 комфорт 1020.0 1020.0
18 16.11 штиль 0 10 км ясно +16.6 +14.8 89 +16 +16 1021.4 1021.0 +21.8
21 16.11 штиль 0 8000 м дымка 9/9 900 м
[Cu Sc]
+16.8 +15.4 91 +17 +17 1012.8 1013.0
03 17.11 штиль 0 8000 м дымка ясно +12.0 +11.7 98 +11 +11 1023.4 1023.0
09 17.11 СЗ 2 10 км ясно +20.5 +13.5 64 +23 +32 комфорт 1015.0 1015.0
12 17.11 СЗ 2 10 км ясно +23.0 +13.5 55 +26 +29 жарко 1012.6 1013.0
15 17.11 штиль 0 10 км ясно +21.0 +13.7 63 +23 +23 комфорт 1022.8 1023.0
18 17.11 штиль 0 10 км ясно +18.5 +13.6 73 +19 +19 1013.3 1013.0 +23.2
00 18.11 штиль 0 10 км ясно +15.5 +13.2 86 +15 +15 1022.9 1023.0
03 18.11 СЗ 2 10 км ясно +14.5 +11.7 83 +14 +14 1022.9 1023.0
06 18.11 СЗ 2 3000 м 9/8 840 м
[Sc]
+15.0 +12.2 83 +15 +15 1023.6 1024.0 +23.4
09 18.11 СЗ 2 3000 м 8/8 840 м
[Sc]
+20.5 +13.5 64 +23 +25 комфорт 1022.7 1023.0
12 18.11 СЗ 2 10 км ясно +22.5 +10.7 47 +24 +28 комфорт 1020.8 1021.0
15 18.11 С 2 10 км ясно +19.7 +10.7 56 +22 +22 комфорт 1020.4 1020.0
18 18.11 СЗ 2 10 км ясно +17.4 +1.0 33 +18 +18 1021.1 1021.0 +12.2
21 18.11 штиль 0 10 км ясно +15.0 +10.2 73 +15 +15 1020.8 1021.0
00 19.11 штиль 0 10 км ясно +14.5 +11.7 83 +14 +14 1020.1 1020.0
03 19.11 штиль 0 10 км ясно +13.5 +10.6 83 +13 +13 1020.8 1021.0
06 19.11 штиль 0 10 км ясно +15.0 +10.2 73 +15 +19 1022.6 1023.0 +32.0
12 19.11 СЗ 2 10 км 8/0
[Cs]
+21.0 +1.1 27 +22 +24 комфорт 1020.2 1020.0
18 19.11 штиль 0 10 км 8/0
[Cs]
+17.6 +10.9 65 +18 +18 1020.6 1021.0 +21.5
21 19.11 штиль 0 10 км 8/0
[Cs]
+15.4 +11.9 80 +15 +15 1020.0 1020.0
00 20.11 штиль 0 10 км 8/0
[Cs]
+14.0 +11.5 85 +14 +14 1020.1 1020.0
03 20.11 С 2 10 км 5/5 900 м
[Sc]
+13.5 +11.0 85 +13 +13 1020.9 1021.0
06 20.11 СЗ 3 10 км ясно +14.2 +10.8 80 +13 +16 1022.4 1022.0 +11.6
09 20.11 С 3 10 км ясно +19.8 +9.4 51 +21 +28 комфорт 1021.4 1021.0
12 20.11 С 5 10 км 4/0
[Ci sp]
+21.8 +7.3 39 +23 +24 комфорт 1020.4 1020.0
15 20.11 С 2 10 км ясно +19.8 +7.2 44 +21 +21 комфорт 1020.6 1021.0
18 20.11 штиль 0 10 км ясно +16.3 +9.6 65 +16 +16 1020.9 1021.0 +23.1
21 20.11 штиль 0 10 км ясно +15.0 +10.0 72 +15 +15 1020.5 1021.0
03 21.11 штиль 0 10 км ясно +12.0 +9.4 84 +11 +11 1020.4 1020.0
06 21.11 СЗ 2 10 км 4/0
[Ci fib]
+14.4 +10.1 75 +14 +17 1021.0 1021.0 +10.9
09 21.11 З 2 10 км 3/0
[Ac trans]
+21.6 +11.5 53 +24 +30 комфорт 1019.8 1020.0

 

Местоположение метеостанции Karbalaa (Ирак): широта 32.62 долгота 44.02 высота над уровнем моря 29 м.

В архиве по умолчанию представлена погода в Karbalaa за последнюю неделю. Архивные данные за месяц целиком и за предыдущие месяцы, начиная с января 2011 года, Вы можете получить, выбрав интересующий диапазон дат из раскрывающегося списка и нажав кнопку "Ввод!".


*Определитесь, кто Вы:
робот инопланетянин человек

Внимание! Время в таблицах - всемирное. Для получения местного времени необходимо прибавить поправку, которая в Karbalaa равна 3 ч.

Смотрите также архив погоды в соседних городах и на ближайших метеорологических станциях:

Погода в Hella (Ирак) (45 км)
Погода в Baghdad (Ирак) (71 км)
Погода в Najaf (Ирак) (77 км)
Погода в Azizyah (Ирак) (104 км)
Погода в Ramadi (Ирак) (113 км)
Погода в Diwaniya (Ирак) (115 км)
Погода в Heet (Ирак) (115 км)
Погода в Ayn Al-Tamar (Ирак) (122 км)
Погода в Al-Khalis (Ирак) (143 км)
Погода в Ubaydah Bin Al Jarrah (Ирак) (163 км)

Пояснения к столбцам:

Ветер - указаны скорость ветра в м/с - средняя за 10 мин, порывы в срок и между сроками (в фигурных скобках) и направление, откуда дует ветер: С - северный, СВ - северо-восточный, В - восточный, ЮВ - юго-восточный, Ю - южный, ЮЗ - юго-западный, З - западный, СЗ - северо-западный.
Видимость - горизонтальная дальность видимости в метрах или километрах. При видимости от 1 до 10 км при отсутствии осадков обычно наблюдается дымка, при ухудшении видимости до 1 км и менее - туман. В сухую погоду видимость может ухудшаться дымом, пылью или мглою.
Явления - указаны атмосферные явления, наблюдавшиеся в срок или в последний час перед сроком; фигурными скобками обозначены явления, наблюдавшиеся между сроками (за 1-3 часа до срока); квадратными скобками обозначены град или гололедные отложения с указанием их диаметра в мм.
Облачность - указаны через наклонную черту общая и нижняя облачность в баллах и высота нижней границы облаков в метрах; квадратными скобками обозначены формы облаков: Ci - перистые, Cs - перисто-слоистые, Cc - перисто-кучевые, Ac - высококучевые, As - высокослоистые, Sc - слоисто-кучевые, Ns - слоисто-дождевые, Cu - кучевые, Cb - кучево-дождевые. Подробнее классификацию облаков см. в Атласе облаков (PDF).
T - Температура воздуха - температура, измеренная на высоте 2 м над землей.
Td - Температура точки росы - температура, при понижении до которой содержащийся в воздухе водяной пар достигнет насыщения.
f - Относительная влажность воздуха - влажноcть воздуха, измеренная на высоте 2 м над землей.
Te - Эффективная температура - температура, которую ощущает одетый по сезону человек в тени. Характеристика душности погоды. При расчете учитывается влияние влажности воздуха и скорости ветра на теплоощущения человека.
Tes - Эффективная температура на солнце - температура, которую ощущает человек, с поправкой на солнечный нагрев. Характеристика знойности погоды. Зависит от высоты солнца над горизонтом, облачности и скорости ветра. Ночью, в пасмурную погоду, а также при ветре 12 м/с и более поправка равна нулю.
P - Атмосферное давление - приведенное к уровню моря атмосферное давление.
Po - Атмосферное давление - измеренное на уровне метеостанции атмосферное давление.
Tmin - Минимальная температура - минимум температуры воздуха на высоте 2 м над землей.
Tmax - Максимальная температура - максимум температуры воздуха на высоте 2 м над землей.
R - Количество осадков - Количество выпавших осадков за период времени, мм. При наведении курсора мыши на число - период времени, за который выпало указанное количество осадков.
R24 - Количество осадков - Количество выпавших осадков за 24 часа, мм.
S - Снежный покров - Высота снежного покрова, см. При наведении курсора мыши на число - состояние снежного покрова и степень покрытия местности в баллах.